DELTA 1 DEB, 40756

Orbit data source: Space-Track

DELTA 1 DEB, 40756 is space debris in SSO originally from a launch on Thu, 29 Jul 1976 UTC launched from the Air Force Western Test Range (AFWTR). Debris objects in space refer to the collection of defunct objects orbiting the Earth. Examples of debris include non-operational satellites, rocket bodies, and fragments generated from explosions, collisions, or faulty payload assembly.

Loading next visibility...
Identifier
40756, 1976-077FZ
Orbit
SSO
Country
Flag of USUS
Related business
Manufacturer
Unknown
Mission
Spacecraft
Bus & Motor
Unknown
Mass
Unknown
Launch date (UTC)
1976-07-29 (49 years ago)
Launch vehicle
Unknown
Launch site
Air Force Western Test Range (AFWTR)
Object type
Payload
Rocket body
Debris
Shape & HBR
Unknown shape, 0.1 m
Radar Cross Section
Small (<0.1 m²)

Expand to show TLE details & history
Last TLE update: 2 days ago

TLE from 2 days ago
0 DELTA 1 DEB
1 40756U 76077FZ  25348.16022316 -.00000027  00000-0  16499-3 0  9994
2 40756 102.5512 327.4221 0077317 342.3327  78.0104 12.25955802933868
Epoch: 2025-12-14T03:50Z
TLE epoch observation values (Epoch: 2025-12-14T03:50:43.281Z)
Latitude
58.90241°
Longitude
165.11519°
Altitude
1,564.137 km
Speed
7.096 km/s
True Right ascension
20h 23m 29s
True Declination
58° 45' 56"
Sunlit
Object was in daylight at epoch
Visualization orbit readout
Latitude
Unknown
Longitude
Unknown
Altitude
Unknown
Speed
Unknown
Apparent Right ascension
Unknown
Apparent Declination
Unknown
Sunlit
N/A
Visualization observer readout
Local Sidereal Time
22:30:29
Azimuth
Unknown
Elevation
Unknown
Doppler factor
Unknown
Orbital elements
Apogee altitude
1,625.741 km
Perigee altitude
1,502.923 km
Semi-major axis
7,942.469 km
Eccentricity
0.00773
Inclination
102.5512°
RAAN
327.4221°
Arg. of periapsis
342.3327°
True anomaly
78.87877°
Mean anomaly
78.0104°
Eccentric anomaly
78.44441°
Mean motion
3.06627 °/min
Orbital period
117.41 mins
BSTAR
0.00016499
Loading maneuver chart data...
Computing Atmospheric mass density...
Loading historical data...
Loading historical data...
Loading historical data...
Loading historical data...
Loading historical data...
Loading historical data...
Loading historical data...

Documentation

Showing up to 5 results
|